Regional Weather Roundup
Issued by NWS

Home | Current Version | Previous Version | Graphics & Text | Print | Product List | Glossary On
Versions: 1 2 3 4 5 6 7 8 9 10 11 12 13 14 15 16 17 18 19 20 21 22 23 24 25 26 27 28 29 30 31 32 33 34 35 36 37 38 39 40 41 42 43 44 45 46 47 48 49 50
266
ASUS43 KLOT 272209
RWRIL

ILLINOIS REGIONAL WEATHER ROUNDUP
NATIONAL WEATHER SERVICE CHICAGO/ROMEOVILLE IL
500 PM CDT TUE SEP 27 2016

NOTE: "FAIR" INDICATES FEW OR NO CLOUDS BELOW 12,000 FEET WITH NO
SIGNIFICANT WEATHER AND/OR OBSTRUCTIONS TO VISIBILITY.

* THESE STATIONS ARE NOT UNDER NWS QUALITY CONTROL. THEY ALSO MAY NOT
  REPORT WEATHER SUCH AS PRECIPITATION OR FOG.

ILZ001-002-007-009-015-016-024-272300-
NORTHWEST ILLINOIS

CITY           SKY/WX    TMP DP  RH WIND       PRES   REMARKS
MOLINE         SUNNY     74  35  24 W13G23    29.77S
STERLING*      PTSUNNY   69  38  32 W16G22    29.76S
SAVANNA*       MOSUNNY   70  33  26 W14G23    29.75F
$$

ILZ003-004-008-010-011-017-018-272300-
NORTH CENTRAL ILLINOIS

CITY           SKY/WX    TMP DP  RH WIND       PRES   REMARKS
ROCKFORD       PTSUNNY   67  35  30 W14G23    29.76S
FREEPORT*      SUNNY     66  34  30 W17G23    29.77S
ROCHELLE*      MOSUNNY   65  35  31 W15G24    29.77S
DE KALB*       CLOUDY    65  34  31 W15G23    29.77S
$$

ILZ005-006-012>014-019>023-272300-
NORTHEAST ILLINOIS

CITY           SKY/WX    TMP DP  RH WIND       PRES   REMARKS
CHICAGO-OHARE  CLOUDY    67  32  27 W17G25    29.74S
CHICAGO-MIDWAY PTSUNNY   70  31  23 W13G26    29.75S
AURORA         CLOUDY    69  33  26 W13G22    29.76S
LANSING*       MOSUNNY   69  37  31 W17       29.75S
JOLIET*        MOSUNNY   71  31  22 W10G18    29.76S
WAUKEGAN       CLOUDY    65  42  43 VRB6      29.72S
DUPAGE AIRPORT MOSUNNY   68  34  28 W17       29.75R
KANKAKEE*      SUNNY     73  25  17 W16G23    29.77S
WHEELING       PTSUNNY   67  33  28 W13       29.75R
MORRIS*        MOSUNNY   71  29  21 W12G21    29.75F
ROMEOVILLE*    MOSUNNY   68  38  33 W9        29.76S
NORTHERLY ISL    N/A     69  31  24 W10         N/A
$$

LMZ740>746-272300-
SOUTHERN LAKE MICHIGAN

STATION/POSITION SKY/WX   TEMP    WIND        PRES    VSBY  WAVE
                          AIR SEA DIR/SP/G                  HT/PER
                          (F)     (DEG/KT/KT) (MB)    (MI)  (FT/S)
SOUTHERN BUOY              61 70  300/ 14/ 17 1006.3R         3/ 5
WILMETTE HARBOR            65 60  290/ 14/ 21   N/A           2/ 3
HARRISON CRIB              68     280/ 21/ 24   N/A
BURNHAM HARBOR             68     250/  8/ 18   N/A
CALUMET HARBOR             70     240/ 12/ 19 1006.8F
BURNS HARBOR               68     270/ 16/ 20 1007.5F
MICHIGAN CITY              67     250/ 23/ 24   N/A
MICHIGAN CITY 6N           68 67  280/ 16/ 19   N/A           5/ 4
ST. JOSEPH                 67 66  280/ 17/ 21 1007.1          6/ 6
$$

ILZ025>027-034>036-040-047-049-050-058-095>099-272300-
WEST-CENTRAL ILLINOIS

CITY           SKY/WX    TMP DP  RH WIND       PRES   REMARKS
QUINCY         SUNNY     76  41  28 W14G24    29.82F
GALESBURG*     SUNNY     73  35  24 W16       29.79F
MACOMB*        SUNNY     76  33  21 W20       29.83S
JACKSONVILLE*  SUNNY     78  42  27 W16       29.81F
PITTSFIELD*    SUNNY     78  45  31 W15G23    29.83F
$$

ILZ028>032-037-038-041>044-048-051>054-059>061-272300-
CENTRAL ILLINOIS

CITY           SKY/WX    TMP DP  RH WIND       PRES   REMARKS
PONTIAC        SUNNY     74  30  19 W16G25    29.78S
BLOOMINGTON    SUNNY     73  36  25 W16       29.81S
DECATUR        SUNNY     76  39  26 W15G24    29.81F
PEORIA         SUNNY     74  31  20 W15G24    29.79F
LACON*         SUNNY     73  25  16 W17       29.77F
LINCOLN*       SUNNY     76  40  27 W6        29.80F
SPRINGFIELD    SUNNY     79  39  23 W16G24    29.81F
TAYLORVILLE    SUNNY     77  44  30 W15G22    29.82F
$$

ILZ033-039-045-046-055>057-062-063-272300-
EAST-CENTRAL ILLINOIS

CITY           SKY/WX    TMP DP  RH WIND       PRES   REMARKS
CHAMPAIGN      SUNNY     75  36  24 W14G23    29.81F
RANTOUL*       SUNNY     76  35  21 W15G21    29.79F
MATTOON        LGT RAIN  75  40  28 SW9G20    29.82F
PARIS*         SUNNY     76  40  27 W6        29.82S
$$

ILZ079-100>102-272300-
SOUTHWEST ILLINOIS

CITY           SKY/WX    TMP DP  RH WIND       PRES   REMARKS
BELLEVILLE     SUNNY     79  48  33 W10G22    29.85F
CAHOKIA*       SUNNY     79  45  29 W8        29.86F
SPARTA*        SUNNY     76  51  40 SW9       29.89F
$$

ILZ064>066-069>071-074>076-080>082-084>086-088>090-092>094-272300-
SOUTH-CENTRAL ILLINOIS

CITY           SKY/WX    TMP DP  RH WIND       PRES   REMARKS
CARBONDALE     SUNNY     76  50  40 VRB7      29.89F
CAIRO*         SUNNY     78  47  32 W8        29.91F
EFFINGHAM*     SUNNY     76  49  38 SW14      29.86F
MARION         SUNNY     77  50  38 SW12      29.90F
MT. VERNON     SUNNY     77  46  33 SW9       29.88F
CENTRALIA*     SUNNY     78  49  36 W12       29.86F
SALEM*         SUNNY     78  45  30 W12       29.86F
METROPOLIS*    SUNNY     78  48  34 CALM      29.92F
$$

ILZ067-068-072-073-078-083-087-091-272300-
SOUTHEAST ILLINOIS

CITY           SKY/WX    TMP DP  RH WIND       PRES   REMARKS
LAWRENCEVILLE  SUNNY     77  45  32 W16       29.85F
FLORA*         SUNNY     78  44  30 W14G21    29.86F
FAIRFIELD*     SUNNY     76  45  33 SW3       29.86F
HARRISBURG*    SUNNY     77  49  37 W12       29.89F
ROBINSON*      SUNNY     75  45  34 W12G21    29.85F
CARMI*         SUNNY     77  49  37 SW14      29.87F
$$

ABBREVIATIONS USED IN REMARKS
   TC - TEMPERATURE IN CELSIUS
  WCI - WIND CHILL INDEX
   HX - HEAT INDEX
  VSB - VISIBILITY
$$





USA.gov is the U.S. government's official web portal to all federal, state and local government web resources and services.